| time (UTC) | temp F | wind direction | speed MPH | gust MPH | rain 1hr in | rain 24hr in | rain mn in | humidity % | barometer mb |
| 20260507081531 | 53 | 53 | 1.0 | 5.0 | 0.00 | 0.00 | 0.00 | 82 | 1020.5 |
| 20260507080030 | 52 | 51 | 1.0 | 6.0 | 0.00 | 0.00 | 0.00 | 83 | 1020.6 |
| 20260507074528 | 52 | 69 | 1.0 | 6.0 | 0.00 | 0.00 | 0.00 | 83 | 1020.5 |
| 20260507073028 | 51 | 70 | 0.0 | 4.0 | 0.00 | 0.00 | 0.00 | 82 | 1020.4 |
| 20260507071532 | 51 | 229 | 0.0 | 4.0 | 0.00 | 0.00 | 0.00 | 81 | 1020.4 |
| 20260507064533 | 52 | 139 | 0.0 | 3.0 | 0.00 | 0.00 | 0.00 | 76 | 1020.6 |
| 20260507063030 | 53 | 166 | 0.0 | 4.0 | 0.00 | 0.00 | 0.00 | 73 | 1020.7 |
| 20260507061530 | 55 | 150 | 1.0 | 4.0 | 0.00 | 0.00 | 0.00 | 69 | 1020.8 |
| 20260507054530 | 57 | 335 | 2.0 | 8.0 | 0.00 | 0.00 | 0.00 | 61 | 1020.9 |
| 20260507053030 | 58 | 350 | 2.0 | 4.0 | 0.00 | 0.00 | 0.00 | 59 | 1021.0 |
| 20260507050031 | 60 | 271 | 2.0 | 6.0 | 0.00 | 0.00 | 0.00 | 54 | 1020.9 |
| 20260507044530 | 60 | 247 | 4.0 | 8.0 | 0.00 | 0.00 | 0.00 | 53 | 1021.0 |
| 20260507043029 | 61 | 247 | 3.0 | 5.0 | 0.00 | 0.00 | 0.00 | 52 | 1021.0 |
| 20260507040037 | 62 | 282 | 5.0 | 11.0 | 0.00 | 0.00 | 0.00 | 51 | 1020.8 |
| 20260507033108 | 64 | 285 | 5.0 | 11.0 | 0.00 | 0.00 | 0.00 | 48 | 1020.6 |
| 20260507031530 | 64 | 300 | 7.0 | 14.0 | 0.00 | 0.00 | 0.00 | 48 | 1020.5 |
| 20260507030104 | 65 | 304 | 7.0 | 19.0 | 0.00 | 0.00 | 0.00 | 49 | 1020.3 |
| 20260507024530 | 65 | 298 | 6.0 | 16.0 | 0.00 | 0.00 | 0.00 | 49 | 1020.2 |
| 20260507021528 | 66 | 296 | 6.0 | 14.0 | 0.00 | 0.00 | 0.00 | 49 | 1020.2 |
| 20260507020030 | 66 | 289 | 6.0 | 15.0 | 0.00 | 0.00 | 0.00 | 49 | 1020.1 |
| 20260507013027 | 67 | 305 | 4.0 | 10.0 | 0.00 | 0.00 | 0.00 | 49 | 1019.9 |
| 20260507011530 | 67 | 326 | 4.0 | 11.0 | 0.00 | 0.00 | 0.00 | 48 | 1019.8 |
| 20260507010027 | 68 | 326 | 6.0 | 13.0 | 0.00 | 0.00 | 0.00 | 45 | 1019.6 |
| 20260507004530 | 69 | 308 | 7.0 | 15.0 | 0.00 | 0.00 | 0.00 | 45 | 1019.5 |
| 20260507003032 | 69 | 308 | 6.0 | 14.0 | 0.00 | 0.00 | 0.00 | 45 | 1019.5 |
| 20260507001532 | 69 | 299 | 6.0 | 16.0 | 0.00 | 0.00 | 0.00 | 45 | 1019.4 |
| 20260507000028 | 71 | 328 | 8.0 | 16.0 | 0.00 | 0.00 | 0.00 | 45 | 1019.2 |
| 20260506234532 | 72 | 325 | 7.0 | 18.0 | 0.00 | 0.00 | 0.00 | 44 | 1019.2 |
| 20260506233029 | 72 | 334 | 6.0 | 10.0 | 0.00 | 0.00 | 0.00 | 43 | 1019.2 |
| 20260506231526 | 74 | 318 | 8.0 | 16.0 | 0.00 | 0.00 | 0.00 | 42 | 1019.2 |
| 20260506224528 | 74 | 299 | 7.0 | 16.0 | 0.00 | 0.00 | 0.00 | 44 | 1019.4 |
| 20260506223031 | 75 | 318 | 9.0 | 15.0 | 0.00 | 0.00 | 0.00 | 43 | 1019.5 |
| 20260506221529 | 75 | 315 | 9.0 | 18.0 | 0.00 | 0.00 | 0.00 | 42 | 1019.5 |
| 20260506211529 | 75 | 326 | 8.0 | 16.0 | 0.00 | 0.00 | 0.00 | 46 | 1019.3 |
| 20260506210032 | 75 | 323 | 8.0 | 14.0 | 0.00 | 0.00 | 0.00 | 46 | 1019.5 |
| 20260506204606 | 75 | 332 | 9.0 | 16.0 | 0.00 | 0.00 | 0.00 | 47 | 1019.5 |
| 20260506203105 | 75 | 329 | 8.0 | 16.0 | 0.00 | 0.00 | 0.00 | 48 | 1019.5 |
| 20260506201540 | 74 | 331 | 8.0 | 15.0 | 0.00 | 0.00 | 0.00 | 50 | 1019.5 |
| 20260506200105 | 73 | 329 | 9.0 | 17.0 | 0.00 | 0.00 | 0.00 | 51 | 1019.6 |
| 20260506194537 | 72 | 326 | 9.0 | 18.0 | 0.00 | 0.00 | 0.00 | 53 | 1019.6 |
| 20260506193029 | 72 | 329 | 7.0 | 14.0 | 0.00 | 0.00 | 0.00 | 54 | 1019.8 |
| 20260506191531 | 72 | 341 | 8.0 | 14.0 | 0.00 | 0.00 | 0.00 | 55 | 1020.0 |
| 20260506190034 | 71 | 337 | 8.0 | 17.0 | 0.00 | 0.00 | 0.00 | 55 | 1019.9 |
| 20260506184527 | 70 | 330 | 8.0 | 15.0 | 0.00 | 0.00 | 0.00 | 57 | 1019.9 |
| 20260506183039 | 69 | 335 | 9.0 | 16.0 | 0.00 | 0.00 | 0.00 | 58 | 1020.0 |
| 20260506181529 | 70 | 344 | 8.0 | 15.0 | 0.00 | 0.00 | 0.00 | 58 | 1020.1 |
| 20260506174529 | 72 | 325 | 5.0 | 11.0 | 0.00 | 0.00 | 0.00 | 59 | 1019.9 |
| 20260506171531 | 69 | 358 | 2.0 | 6.0 | 0.00 | 0.00 | 0.00 | 63 | 1020.0 |
| 20260506170027 | 69 | 17 | 3.0 | 7.0 | 0.00 | 0.00 | 0.00 | 65 | 1020.3 |
| 20260506164529 | 69 | 338 | 1.0 | 6.0 | 0.00 | 0.00 | 0.00 | 67 | 1020.4 |
| 20260506163030 | 68 | 82 | 2.0 | 6.0 | 0.00 | 0.00 | 0.00 | 72 | 1020.5 |
| 20260506161531 | 66 | 136 | 1.0 | 4.0 | 0.00 | 0.00 | 0.00 | 77 | 1020.5 |
| 20260506160030 | 64 | 266 | 0.0 | 2.0 | 0.00 | 0.00 | 0.00 | 84 | 1020.5 |
| 20260506154529 | 62 | 118 | 1.0 | 3.0 | 0.00 | 0.00 | 0.00 | 91 | 1020.4 |
| 20260506153030 | 60 | 131 | 0.0 | 4.0 | 0.00 | 0.00 | 0.00 | 93 | 1020.5 |
| 20260506151530 | 58 | 80 | 0.0 | 3.0 | 0.00 | 0.00 | 0.00 | 94 | 1020.5 |
| 20260506144531 | 50 | 45 | 0.0 | 0.0 | 0.00 | 0.00 | 0.00 | 96 | 1020.4 |
| 20260506143104 | 48 | 45 | 0.0 | 2.0 | 0.00 | 0.00 | 0.00 | 95 | 1020.3 |
| 20260506141530 | 47 | 45 | 0.0 | 2.0 | 0.00 | 0.00 | 0.00 | 95 | 1020.2 |
| 20260506140030 | 45 | 80 | 0.0 | 2.0 | 0.00 | 0.00 | 0.00 | 95 | 1020.0 |
| 20260506133103 | 45 | 157 | 0.0 | 0.0 | 0.00 | 0.00 | 0.00 | 95 | 1019.7 |
| 20260506131531 | 44 | 155 | 1.0 | 5.0 | 0.00 | 0.00 | 0.00 | 95 | 1019.5 |
| 20260506130032 | 44 | 162 | 0.0 | 3.0 | 0.00 | 0.00 | 0.00 | 94 | 1019.3 |
| 20260506123030 | 44 | 199 | 0.0 | 4.0 | 0.00 | 0.00 | 0.00 | 94 | 1019.1 |
| 20260506121531 | 44 | 179 | 1.0 | 4.0 | 0.00 | 0.00 | 0.00 | 94 | 1019.0 |
| 20260506120029 | 45 | 180 | 0.0 | 1.0 | 0.00 | 0.00 | 0.00 | 94 | 1019.0 |
| 20260506114529 | 45 | 180 | 0.0 | 0.0 | 0.00 | 0.00 | 0.00 | 94 | 1018.8 |
| 20260506113104 | 45 | 181 | 0.0 | 3.0 | 0.00 | 0.00 | 0.00 | 94 | 1018.8 |
| 20260506111533 | 45 | 180 | 2.0 | 4.0 | 0.00 | 0.00 | 0.00 | 94 | 1018.7 |
| 20260506110030 | 45 | 180 | 0.0 | 2.0 | 0.00 | 0.00 | 0.00 | 93 | 1018.5 |
| 20260506101607 | 46 | 180 | 0.0 | 0.0 | 0.00 | 0.00 | 0.00 | 93 | 1018.4 |
| 20260506100049 | 46 | 180 | 0.0 | 1.0 | 0.00 | 0.00 | 0.00 | 93 | 1018.3 |
| 20260506094532 | 46 | 205 | 0.0 | 3.0 | 0.00 | 0.00 | 0.00 | 93 | 1018.3 |
| 20260506093031 | 46 | 225 | 0.0 | 1.0 | 0.00 | 0.00 | 0.00 | 92 | 1018.2 |
| 20260506091531 | 46 | 225 | 0.0 | 0.0 | 0.00 | 0.00 | 0.00 | 92 | 1018.2 |
| 20260506084529 | 47 | 200 | 0.0 | 4.0 | 0.00 | 0.00 | 0.00 | 92 | 1018.0 |
| 20260506083030 | 48 | 187 | 0.0 | 3.0 | 0.00 | 0.00 | 0.00 | 91 | 1017.9 |